Location: Cella
(44.7333°N, 10.5667°E)
Time: 11:26:13
(UTC+00:00)

Meteor 1-11 Rocket - Pass Details

Date: 03 March 2021
Orbit: 831 x 916 km, 81.2° (Epoch: 18 April)

Event Time Altitude Azimuth Distance (km) Brightness Sun altitude
Rises 19:22:51 0° 192° (SSW) 3,468 6.9 -24.5°
Reaches altitude 10° 19:25:19 10° 194° (SSW) 2,521 6.1 -24.9°
Maximum altitude 19:31:03 79° 281° (W) 882 3.8 -25.9°
Drops below altitude 10° 19:36:41 10° 8° (N) 2,483 6.2 -26.8°
Sets 19:39:06 0° 10° (N) 3,413 7.0 -27.2°
